TimeEST,TemperatureF,Dew PointF,Humidity,Sea Level PressureIn,VisibilityMPH,Wind Direction,Wind SpeedMPH,Gust SpeedMPH,PrecipitationIn,Events,Conditions,WindDirDegrees,DateUTC
12:53 AM,8.1,-7.1,50,30.30,10.0,WSW,10.4,19.6,N/A,,Clear,250,2014-01-08 05:53:00
1:53 AM,8.1,-7.1,50,30.33,10.0,WSW,13.8,19.6,N/A,,Clear,250,2014-01-08 06:53:00
2:53 AM,8.1,-6.0,53,30.36,10.0,WSW,6.9,-,N/A,,Clear,240,2014-01-08 07:53:00
3:53 AM,8.1,-5.1,55,30.37,10.0,West,9.2,-,N/A,,Clear,260,2014-01-08 08:53:00
4:53 AM,8.1,-4.0,58,30.38,10.0,West,11.5,-,N/A,,Clear,260,2014-01-08 09:53:00
5:53 AM,9.0,-4.0,56,30.41,10.0,West,11.5,-,N/A,,Clear,280,2014-01-08 10:53:00
6:53 AM,8.1,-2.9,61,30.42,10.0,West,3.5,-,N/A,,Clear,260,2014-01-08 11:53:00
7:53 AM,9.0,-0.9,64,30.45,10.0,WSW,4.6,-,N/A,,Clear,250,2014-01-08 12:53:00
8:53 AM,12.0,-2.0,53,30.47,10.0,West,9.2,-,N/A,,Clear,270,2014-01-08 13:53:00
9:53 AM,15.1,-2.0,47,30.50,10.0,West,12.7,-,N/A,,Clear,260,2014-01-08 14:53:00
10:53 AM,18.0,-0.0,45,30.48,10.0,West,10.4,-,N/A,,Clear,280,2014-01-08 15:53:00
11:53 AM,19.9,-0.0,42,30.43,10.0,West,10.4,-,N/A,,Clear,260,2014-01-08 16:53:00
12:53 PM,21.9,-0.9,37,30.40,10.0,WSW,10.4,17.3,N/A,,Clear,240,2014-01-08 17:53:00
1:53 PM,23.0,-0.9,35,30.40,10.0,West,9.2,-,N/A,,Clear,270,2014-01-08 18:53:00
2:53 PM,23.0,-0.0,37,30.40,10.0,West,10.4,-,N/A,,Clear,270,2014-01-08 19:53:00
3:53 PM,21.9,-0.0,38,30.40,10.0,WSW,5.8,-,N/A,,Clear,240,2014-01-08 20:53:00
4:53 PM,19.9,-0.0,42,30.42,10.0,SW,3.5,-,N/A,,Clear,220,2014-01-08 21:53:00
5:53 PM,17.1,3.9,56,30.43,10.0,Calm,Calm,-,N/A,,Clear,0,2014-01-08 22:53:00
6:53 PM,15.1,7.0,70,30.44,10.0,SSW,4.6,-,N/A,,Clear,210,2014-01-08 23:53:00
7:53 PM,14.0,5.0,67,30.46,10.0,Calm,Calm,-,N/A,,Clear,0,2014-01-09 00:53:00
8:53 PM,14.0,6.1,71,30.46,10.0,Calm,Calm,-,N/A,,Partly Cloudy,0,2014-01-09 01:53:00
9:53 PM,12.0,6.1,77,30.46,10.0,Calm,Calm,-,N/A,,Mostly Cloudy,0,2014-01-09 02:53:00
10:53 PM,14.0,6.1,71,30.45,10.0,Calm,Calm,-,N/A,,Mostly Cloudy,0,2014-01-09 03:53:00
11:53 PM,14.0,5.0,67,30.45,10.0,Calm,Calm,-,N/A,,Scattered Clouds,0,2014-01-09 04:53:00